User: anonymous
Location: Fishcreek Rd Observing Site
(41.1865°N, 81.4271°W)
Time: 06:27:30
(UTC-04:00)
Language:

Iridium 45 - Orbit

View from above orbital plane
View from above orbital plane
View from above satellite
View from above satellite

Ground track
Ground track

The orbit data is extracted from the following two-line orbital elements,

1 25104U 97082A   14112.35782322  .00000645  00000-0  21996-3 0  7194
2 25104 087.0309 018.0252 0002774 104.5707 032.9699 14.35015716855271
Epoch (UTC): 22 April 2014 08:35:15
Eccentricity: 0.0002774
inclination: 87.0309°
perigee height: 773 km
apogee height: 777 km
right ascension of ascending node: 18.0252°
argument of perigee: 104.5707°
revolutions per day: 14.35015716
mean anomaly at epoch: 32.9699°
orbit number at epoch: 85527

The dashed part of the orbit path shows where the satellite is in the earth's shadow,  

DLR